Preview of NWS' New Version of Forecast
This preview is not operational and should not be used for support decisions.

Regional Weather Roundup (RWR)

Issued by National Weather Service (NWS)

                            
000
ASCA42 TJSJ 200010
RWRPR 
PUERTO RICO/U.S. VIRGIN ISLANDS HOURLY WEATHER ROUNDUP
NATIONAL WEATHER SERVICE SAN JUAN PR
800 PM AST THU SEP 19 2019

PRZ001>002-007>008-010-200100-
PUERTO RICO
  
CITY           SKY/WX    TMP DP  RH WIND       PRES   REMARKS
SAN JUAN LMM   PTCLDY    82  75  78 E6        29.84R                  
AGUADILLA      PTCLDY    79  77  94 CALM      29.85S                  
CEIBA          PTCLDY    81  75  83 SW3       29.86R                  
$$

VIZ001>002-200100-
U.S. VIRGIN ISLANDS
  
CITY           SKY/WX    TMP DP  RH WIND       PRES   REMARKS
CHARLOTTE AMA  PTCLDY    84  75  74 SE10      29.84R HX  92           
CHRISTIANSTED  PTCLDY    82  73  74 E7        29.85R                  
$$

HOURLY WEATHER ROUNDUP FOR THE NEWS MEDIA
  
CITY           SKY/WX    TMP DP  RH WIND       PRES   REMARKS
ORLANDO        FAIR      77  68  73 NE10      30.03R                  
NEW YORK       FAIR      60  50  69 S6        30.30S                  
NEWARK         FAIR      66  42  41 S5        30.28F                  
CHICAGO        MOCLDY    76  60  57 SE8       30.03S                  
HARTFORD       FAIR      51  48  89 CALM      30.28R                  
BOSTON         FAIR      61  47  59 SE7       30.28S                  
DALLAS         MOCLDY    79  69  71 E6G18     29.86R                  
PHILADELPHIA   FAIR      66  45  46 S3        30.30S                  
LOS ANGELES    MOSUNNY   73  61  65 W17       29.82F                  
WASHINGTON DC  FAIR      63  40  42 SE6       30.29S